Time,TemperatureF,DewpointF,PressureIn,WindDirection,WindDirectionDegrees,WindSpeedMPH,WindSpeedGustMPH,Humidity,HourlyPrecipIn,Conditions,Clouds,dailyrainin,SoftwareType,DateUTC
2013-08-06 00:00:00,55.5,53.5,30.00,NW,315,0.0,1.0,93,0.00,,,0.00,Wunderground v.1.13,2013-08-05 23:00:00,
2013-08-06 00:10:00,55.5,53.5,30.00,NW,315,0.0,1.0,93,0.00,,,0.00,Wunderground v.1.13,2013-08-05 23:10:00,
2013-08-06 00:20:00,55.5,53.5,30.00,NW,315,0.0,1.0,93,0.00,,,0.00,Wunderground v.1.13,2013-08-05 23:20:00,
2013-08-06 00:30:00,55.5,53.5,30.00,NW,315,0.0,1.0,93,0.00,,,0.00,Wunderground v.1.13,2013-08-05 23:30:00,
2013-08-06 00:40:00,55.4,53.4,29.99,N/A,-737280,0.0,0.0,93,0.00,,,0.00,Wunderground v.1.13,2013-08-05 23:40:00,
2013-08-06 00:50:00,55.4,53.4,29.99,N/A,-737280,0.0,0.0,93,0.00,,,0.00,Wunderground v.1.13,2013-08-05 23:50:00,
2013-08-06 01:00:00,54.9,53.2,29.99,NW,315,0.0,1.0,94,0.00,,,0.00,Wunderground v.1.13,2013-08-06 00:00:00,
2013-08-06 01:10:00,54.3,52.9,29.99,N/A,-737280,0.0,0.0,95,0.00,,,0.00,Wunderground v.1.13,2013-08-06 00:10:00,
2013-08-06 01:20:00,54.3,52.9,29.99,N/A,-737280,0.0,0.0,95,0.00,,,0.00,Wunderground v.1.13,2013-08-06 00:20:00,
2013-08-06 01:30:00,53.6,52.5,29.99,N/A,-737280,0.0,0.0,96,0.00,,,0.00,Wunderground v.1.13,2013-08-06 00:30:00,
2013-08-06 01:40:00,52.8,51.7,29.99,N/A,-737280,0.0,0.0,96,0.00,,,0.00,Wunderground v.1.13,2013-08-06 00:40:00,
2013-08-06 01:50:00,52.8,51.7,29.99,N/A,-737280,0.0,0.0,96,0.00,,,0.00,Wunderground v.1.13,2013-08-06 00:50:00,
2013-08-06 02:00:00,51.9,51.1,29.99,N/A,-737280,0.0,0.0,97,0.00,,,0.00,Wunderground v.1.13,2013-08-06 01:00:00,
2013-08-06 02:10:00,51.2,50.4,29.99,NW,315,0.0,1.0,97,0.00,,,0.00,Wunderground v.1.13,2013-08-06 01:10:00,
2013-08-06 02:20:00,51.2,50.4,29.99,NW,315,0.0,1.0,97,0.00,,,0.00,Wunderground v.1.13,2013-08-06 01:20:00,
2013-08-06 02:30:00,50.9,50.4,29.99,N/A,-737280,0.0,0.0,98,0.00,,,0.00,Wunderground v.1.13,2013-08-06 01:30:00,
2013-08-06 02:40:00,51.1,50.8,29.99,N/A,-737280,0.0,0.0,99,0.00,,,0.00,Wunderground v.1.13,2013-08-06 01:40:00,
2013-08-06 02:50:00,51.1,50.8,29.99,N/A,-737280,0.0,0.0,99,0.00,,,0.00,Wunderground v.1.13,2013-08-06 01:50:00,
2013-08-06 03:00:00,51.2,50.9,29.98,NW,315,0.0,2.0,99,0.00,,,0.00,Wunderground v.1.13,2013-08-06 02:00:00,
2013-08-06 03:10:00,51.5,51.5,29.98,NW,315,0.0,2.0,100,0.00,,,0.00,Wunderground v.1.13,2013-08-06 02:10:00,
2013-08-06 03:20:00,51.5,51.5,29.98,NW,315,0.0,2.0,100,0.00,,,0.00,Wunderground v.1.13,2013-08-06 02:20:00,
2013-08-06 03:30:00,51.9,51.9,29.98,NW,315,0.0,1.0,100,0.00,,,0.00,Wunderground v.1.13,2013-08-06 02:30:00,
2013-08-06 03:40:00,52.6,52.6,29.98,N/A,-737280,0.0,0.0,100,0.00,,,0.00,Wunderground v.1.13,2013-08-06 02:40:00,
2013-08-06 03:50:00,52.6,52.6,29.98,N/A,-737280,0.0,0.0,100,0.00,,,0.00,Wunderground v.1.13,2013-08-06 02:50:00,
2013-08-06 04:00:00,52.7,52.7,29.98,NW,315,0.0,2.0,100,0.00,,,0.00,Wunderground v.1.13,2013-08-06 03:00:00,
2013-08-06 04:10:00,52.7,52.7,29.98,NW,315,0.0,1.0,100,0.00,,,0.00,Wunderground v.1.13,2013-08-06 03:10:00,
2013-08-06 04:20:00,52.7,52.7,29.98,NW,315,0.0,1.0,100,0.00,,,0.00,Wunderground v.1.13,2013-08-06 03:20:00,
2013-08-06 04:30:00,52.7,52.7,29.97,N/A,-737280,0.0,0.0,100,0.00,,,0.00,Wunderground v.1.13,2013-08-06 03:30:00,
2013-08-06 04:40:00,52.9,52.9,29.97,N/A,-737280,0.0,0.0,100,0.00,,,0.00,Wunderground v.1.13,2013-08-06 03:40:00,
2013-08-06 04:50:00,52.9,52.9,29.97,N/A,-737280,0.0,0.0,100,0.00,,,0.00,Wunderground v.1.13,2013-08-06 03:50:00,
2013-08-06 05:00:00,53.0,53.0,29.97,N/A,-737280,0.0,0.0,100,0.00,,,0.00,Wunderground v.1.13,2013-08-06 04:00:00,
2013-08-06 05:10:00,52.6,52.6,29.97,N/A,-737280,0.0,0.0,100,0.00,,,0.00,Wunderground v.1.13,2013-08-06 04:10:00,
2013-08-06 05:20:00,52.6,52.6,29.97,N/A,-737280,0.0,0.0,100,0.00,,,0.00,Wunderground v.1.13,2013-08-06 04:20:00,
2013-08-06 05:30:00,51.8,51.8,29.97,N/A,-737280,0.0,0.0,100,0.00,,,0.00,Wunderground v.1.13,2013-08-06 04:30:00,
2013-08-06 05:40:00,50.9,50.9,29.97,NW,315,0.0,1.0,100,0.00,,,0.00,Wunderground v.1.13,2013-08-06 04:40:00,
2013-08-06 05:50:00,50.9,50.9,29.97,NW,315,0.0,1.0,100,0.00,,,0.00,Wunderground v.1.13,2013-08-06 04:50:00,
2013-08-06 06:00:00,50.3,50.3,29.97,NW,315,1.0,5.0,100,0.00,,,0.00,Wunderground v.1.13,2013-08-06 05:00:00,
2013-08-06 06:10:00,49.6,49.6,29.96,NW,315,0.0,2.0,100,0.00,,,0.00,Wunderground v.1.13,2013-08-06 05:10:00,
2013-08-06 06:20:00,49.6,49.6,29.96,NW,315,0.0,2.0,100,0.00,,,0.00,Wunderground v.1.13,2013-08-06 05:20:00,
2013-08-06 06:30:00,48.9,48.9,29.97,NW,315,1.0,3.0,100,0.00,,,0.00,Wunderground v.1.13,2013-08-06 05:30:00,
2013-08-06 06:40:00,48.6,48.6,29.97,NW,315,1.0,3.0,100,0.00,,,0.00,Wunderground v.1.13,2013-08-06 05:40:00,
2013-08-06 06:50:00,48.6,48.6,29.97,NW,315,1.0,3.0,100,0.00,,,0.00,Wunderground v.1.13,2013-08-06 05:50:00,
2013-08-06 07:00:00,49.3,49.3,29.97,NW,315,0.0,2.0,100,0.00,,,0.00,Wunderground v.1.13,2013-08-06 06:00:00,
2013-08-06 07:10:00,50.6,50.6,29.97,NW,315,1.0,3.0,100,0.00,,,0.00,Wunderground v.1.13,2013-08-06 06:10:00,
2013-08-06 07:20:00,50.6,50.6,29.97,NW,315,1.0,3.0,100,0.00,,,0.00,Wunderground v.1.13,2013-08-06 06:20:00,
2013-08-06 07:30:00,52.9,52.9,29.97,NW,315,0.0,3.0,100,0.00,,,0.00,Wunderground v.1.13,2013-08-06 06:30:00,
2013-08-06 07:40:00,53.6,53.6,29.97,NW,315,0.0,4.0,100,0.00,,,0.00,Wunderground v.1.13,2013-08-06 06:40:00,
2013-08-06 07:50:00,53.6,53.6,29.97,NW,315,0.0,4.0,100,0.00,,,0.00,Wunderground v.1.13,2013-08-06 06:50:00,
2013-08-06 08:00:00,54.2,54.2,29.96,NW,315,0.0,1.0,100,0.00,,,0.00,Wunderground v.1.13,2013-08-06 07:00:00,
2013-08-06 08:10:00,54.7,54.7,29.96,NW,315,0.0,2.0,100,0.00,,,0.00,Wunderground v.1.13,2013-08-06 07:10:00,
2013-08-06 08:20:00,54.7,54.7,29.96,NW,315,0.0,2.0,100,0.00,,,0.00,Wunderground v.1.13,2013-08-06 07:20:00,
2013-08-06 08:30:00,55.2,55.2,29.96,NW,315,0.0,1.0,100,0.00,,,0.00,Wunderground v.1.13,2013-08-06 07:30:00,
2013-08-06 08:40:00,55.6,55.6,29.96,NW,315,0.0,1.0,100,0.00,,,0.00,Wunderground v.1.13,2013-08-06 07:40:00,
2013-08-06 08:50:00,55.6,55.6,29.96,NW,315,0.0,1.0,100,0.00,,,0.00,Wunderground v.1.13,2013-08-06 07:50:00,
2013-08-06 09:00:00,56.1,56.1,29.96,NW,315,0.0,2.0,100,0.00,,,0.00,Wunderground v.1.13,2013-08-06 08:00:00,
2013-08-06 09:10:00,56.8,56.2,29.96,NW,315,0.0,3.0,98,0.00,,,0.00,Wunderground v.1.13,2013-08-06 08:10:00,
2013-08-06 09:20:00,56.8,56.2,29.96,NW,315,0.0,3.0,98,0.00,,,0.00,Wunderground v.1.13,2013-08-06 08:20:00,
2013-08-06 09:30:00,57.5,56.7,29.96,NW,315,0.0,3.0,97,0.00,,,0.00,Wunderground v.1.13,2013-08-06 08:30:00,
2013-08-06 09:40:00,58.2,57.4,29.96,NW,315,0.0,3.0,97,0.00,,,0.00,Wunderground v.1.13,2013-08-06 08:40:00,
2013-08-06 09:50:00,58.2,57.4,29.96,NW,315,0.0,3.0,97,0.00,,,0.00,Wunderground v.1.13,2013-08-06 08:50:00,
2013-08-06 09:58:00,59.2,57.8,29.95,South,191,1.0,1.0,95,0.00,,,0.00,Wunderground v.1.13,2013-08-06 08:58:00,
2013-08-06 10:00:00,59.0,57.6,29.95,South,180,1.0,5.0,95,0.00,,,0.00,Wunderground v.1.13,2013-08-06 09:00:00,
2013-08-06 10:08:00,59.2,57.5,29.95,South,191,1.0,1.0,94,0.00,,,0.00,Wunderground v.1.13,2013-08-06 09:08:00,
2013-08-06 10:18:00,59.4,57.7,29.95,SSW,195,1.0,1.0,94,0.00,,,0.00,Wunderground v.1.13,2013-08-06 09:18:00,
2013-08-06 10:28:00,59.2,57.2,29.95,South,189,1.0,1.0,93,0.00,,,0.00,Wunderground v.1.13,2013-08-06 09:28:00,
2013-08-06 10:38:00,59.7,57.7,29.95,South,189,1.0,1.0,93,0.00,,,0.00,Wunderground v.1.13,2013-08-06 09:38:00,
2013-08-06 10:48:00,60.6,58.6,29.95,SSW,193,2.0,2.0,93,0.00,,,0.00,Wunderground v.1.13,2013-08-06 09:48:00,
2013-08-06 10:58:00,60.8,58.8,29.95,SW,220,3.0,3.0,93,0.00,,,0.00,Wunderground v.1.13,2013-08-06 09:58:00,
2013-08-06 11:08:00,60.8,58.5,29.95,SW,216,3.0,3.0,92,0.00,,,0.00,Wunderground v.1.13,2013-08-06 10:08:00,
2013-08-06 11:18:00,60.6,58.3,29.95,SW,220,4.0,4.0,92,0.00,,,0.00,Wunderground v.1.13,2013-08-06 10:18:00,
2013-08-06 11:28:00,61.6,59.3,29.95,SW,223,4.0,5.0,92,0.00,,,0.00,Wunderground v.1.13,2013-08-06 10:28:00,
2013-08-06 11:38:00,61.6,58.6,29.95,SSW,212,5.0,5.0,90,0.00,,,0.00,Wunderground v.1.13,2013-08-06 10:38:00,
2013-08-06 11:48:00,62.4,58.5,29.95,SSW,208,6.0,6.0,87,0.00,,,0.00,Wunderground v.1.13,2013-08-06 10:48:00,
2013-08-06 12:08:00,62.4,57.8,29.95,SW,225,5.0,12.0,85,0.00,,,0.00,Wunderground v.1.13,2013-08-06 11:08:00,
2013-08-06 12:18:00,62.4,57.8,29.95,SW,229,4.0,5.0,85,0.00,,,0.00,Wunderground v.1.13,2013-08-06 11:18:00,
2013-08-06 12:28:00,61.7,57.5,29.95,SSW,205,4.0,4.0,86,0.00,,,0.00,Wunderground v.1.13,2013-08-06 11:28:00,
2013-08-06 12:38:00,62.6,58.4,29.94,SW,223,7.0,8.0,86,0.00,,,0.00,Wunderground v.1.13,2013-08-06 11:38:00,
2013-08-06 12:48:00,63.2,59.3,29.94,SW,223,7.0,8.0,87,0.00,,,0.00,Wunderground v.1.13,2013-08-06 11:48:00,
2013-08-06 12:58:00,63.5,59.6,29.94,SW,227,8.0,9.0,87,0.00,,,0.00,Wunderground v.1.13,2013-08-06 11:58:00,
2013-08-06 13:07:00,62.2,58.0,29.94,SSW,210,5.0,7.0,86,0.00,,,0.00,Wunderground v.1.13,2013-08-06 12:07:00,
2013-08-06 13:17:00,62.1,58.5,29.93,SW,224,6.0,7.0,88,0.00,,,0.00,Wunderground v.1.13,2013-08-06 12:17:00,
2013-08-06 13:27:00,60.9,57.6,29.93,SW,219,6.0,6.0,89,0.00,,,0.00,Wunderground v.1.13,2013-08-06 12:27:00,
2013-08-06 13:37:00,60.0,57.4,29.93,SSW,199,6.0,7.0,91,0.00,,,0.00,Wunderground v.1.13,2013-08-06 12:37:00,
2013-08-06 13:48:00,58.9,56.9,29.93,SW,224,8.0,8.0,93,0.00,,,0.00,Wunderground v.1.13,2013-08-06 12:48:00,
2013-08-06 13:57:00,58.6,56.0,29.93,SW,227,5.0,6.0,91,0.00,,,0.00,Wunderground v.1.13,2013-08-06 12:57:00,
2013-08-06 14:08:00,59.0,54.8,29.93,SSW,205,4.0,4.0,86,0.00,,,0.00,Wunderground v.1.13,2013-08-06 13:08:00,
2013-08-06 14:17:00,59.7,55.5,29.92,SSW,209,3.0,3.0,86,0.00,,,0.00,Wunderground v.1.13,2013-08-06 13:17:00,
2013-08-06 14:27:00,60.1,56.8,29.92,SSW,200,2.0,3.0,89,0.00,,,0.00,Wunderground v.1.13,2013-08-06 13:27:00,
2013-08-06 14:37:00,61.3,58.3,29.92,SSW,200,3.0,3.0,90,0.00,,,0.00,Wunderground v.1.13,2013-08-06 13:37:00,
2013-08-06 14:48:00,61.9,58.6,29.92,SSW,206,2.0,2.0,89,0.00,,,0.00,Wunderground v.1.13,2013-08-06 13:48:00,
2013-08-06 14:57:00,62.6,59.3,29.92,SSW,195,3.0,3.0,89,0.00,,,0.00,Wunderground v.1.13,2013-08-06 13:57:00,
2013-08-06 15:07:00,62.7,59.1,29.91,SSW,193,3.0,3.0,88,0.00,,,0.00,Wunderground v.1.13,2013-08-06 14:07:00,
2013-08-06 15:17:00,63.0,59.1,29.91,SSW,202,3.0,5.0,87,0.00,,,0.00,Wunderground v.1.13,2013-08-06 14:17:00,
2013-08-06 15:27:00,62.9,59.3,29.91,SSW,200,3.0,4.0,88,0.00,,,0.00,Wunderground v.1.13,2013-08-06 14:27:00,
2013-08-06 15:37:00,63.0,59.4,29.91,SSW,208,2.0,2.0,88,0.00,,,0.00,Wunderground v.1.13,2013-08-06 14:37:00,
2013-08-06 15:47:00,62.1,58.8,29.90,SSW,205,2.0,5.0,89,0.00,,,0.00,Wunderground v.1.13,2013-08-06 14:47:00,
2013-08-06 16:07:00,60.1,57.8,29.90,SW,225,4.0,14.0,92,0.02,,,0.02,Wunderground v.1.13,2013-08-06 15:07:00,
2013-08-06 16:17:00,59.7,58.3,29.90,SW,222,2.0,2.0,95,0.00,,,0.02,Wunderground v.1.13,2013-08-06 15:17:00,
2013-08-06 16:27:00,60.6,58.6,29.90,SSW,210,2.0,2.0,93,0.00,,,0.02,Wunderground v.1.13,2013-08-06 15:27:00,
2013-08-06 16:37:00,60.6,58.3,29.89,SSW,202,3.0,3.0,92,0.00,,,0.02,Wunderground v.1.13,2013-08-06 15:37:00,
2013-08-06 16:47:00,61.1,59.1,29.89,SSW,212,2.0,2.0,93,0.00,,,0.02,Wunderground v.1.13,2013-08-06 15:47:00,
2013-08-06 16:57:00,61.9,59.5,29.89,SSW,199,2.0,2.0,92,0.00,,,0.02,Wunderground v.1.13,2013-08-06 15:57:00,
2013-08-06 17:07:00,63.0,60.3,29.89,SSW,192,3.0,3.0,91,0.00,,,0.02,Wunderground v.1.13,2013-08-06 16:07:00,
2013-08-06 17:17:00,64.0,61.0,29.89,SSW,193,3.0,4.0,90,0.00,,,0.02,Wunderground v.1.13,2013-08-06 16:17:00,
2013-08-06 17:27:00,63.2,60.2,29.89,SSW,196,3.0,5.0,90,0.00,,,0.02,Wunderground v.1.13,2013-08-06 16:27:00,
2013-08-06 17:37:00,63.2,59.9,29.89,SSW,205,4.0,5.0,89,0.00,,,0.02,Wunderground v.1.13,2013-08-06 16:37:00,
2013-08-06 17:47:00,63.0,59.7,29.88,SW,215,3.0,3.0,89,0.00,,,0.02,Wunderground v.1.13,2013-08-06 16:47:00,
2013-08-06 17:58:00,62.2,59.5,29.88,SSW,210,3.0,6.0,91,0.00,,,0.02,Wunderground v.1.13,2013-08-06 16:58:00,
2013-08-06 18:08:00,62.2,58.9,29.88,SW,223,5.0,7.0,89,0.00,,,0.02,Wunderground v.1.13,2013-08-06 17:08:00,
2013-08-06 18:18:00,61.4,58.7,29.88,SW,215,3.0,3.0,91,0.00,,,0.02,Wunderground v.1.13,2013-08-06 17:18:00,
2013-08-06 18:28:00,61.6,58.9,29.88,South,181,3.0,5.0,91,0.00,,,0.02,Wunderground v.1.13,2013-08-06 17:28:00,
2013-08-06 18:38:00,60.5,57.9,29.87,SSW,195,2.0,2.0,91,0.00,,,0.02,Wunderground v.1.13,2013-08-06 17:38:00,
2013-08-06 18:48:00,59.7,57.7,29.87,SSW,193,3.0,3.0,93,0.00,,,0.02,Wunderground v.1.13,2013-08-06 17:48:00,
2013-08-06 18:58:00,59.7,58.0,29.87,SSW,209,3.0,3.0,94,0.00,,,0.02,Wunderground v.1.13,2013-08-06 17:58:00,
2013-08-06 19:08:00,60.0,58.3,29.87,SSW,206,3.0,3.0,94,0.00,,,0.02,Wunderground v.1.13,2013-08-06 18:08:00,
2013-08-06 19:18:00,60.5,58.8,29.87,SSW,205,3.0,3.0,94,0.00,,,0.02,Wunderground v.1.13,2013-08-06 18:18:00,
2013-08-06 19:27:00,60.5,58.5,29.87,SSW,202,3.0,3.0,93,0.00,,,0.02,Wunderground v.1.13,2013-08-06 18:27:00,
2013-08-06 19:37:00,60.3,58.0,29.87,South,188,3.0,3.0,92,0.00,,,0.02,Wunderground v.1.13,2013-08-06 18:37:00,
2013-08-06 19:47:00,60.1,57.8,29.86,SSW,212,3.0,3.0,92,0.00,,,0.02,Wunderground v.1.13,2013-08-06 18:47:00,
2013-08-06 20:07:00,60.0,58.0,29.86,SSW,203,2.0,7.0,93,0.00,,,0.02,Wunderground v.1.13,2013-08-06 19:07:00,
2013-08-06 20:17:00,59.7,57.4,29.86,South,182,3.0,3.0,92,0.00,,,0.02,Wunderground v.1.13,2013-08-06 19:17:00,
2013-08-06 20:27:00,59.5,57.2,29.86,South,188,2.0,5.0,92,0.00,,,0.02,Wunderground v.1.13,2013-08-06 19:27:00,
2013-08-06 20:37:00,59.4,57.1,29.86,SSW,195,3.0,3.0,92,0.00,,,0.02,Wunderground v.1.13,2013-08-06 19:37:00,
2013-08-06 20:47:00,59.2,56.9,29.86,South,181,3.0,3.0,92,0.00,,,0.02,Wunderground v.1.13,2013-08-06 19:47:00,
2013-08-06 20:58:00,59.0,56.7,29.86,South,185,3.0,4.0,92,0.00,,,0.02,Wunderground v.1.13,2013-08-06 19:58:00,
2013-08-06 21:08:00,58.9,56.6,29.86,SSW,205,4.0,4.0,92,0.00,,,0.02,Wunderground v.1.13,2013-08-06 20:08:00,
2013-08-06 21:18:00,58.9,56.6,29.86,South,182,3.0,3.0,92,0.00,,,0.02,Wunderground v.1.13,2013-08-06 20:18:00,
2013-08-06 21:28:00,58.7,56.4,29.86,South,181,4.0,4.0,92,0.00,,,0.02,Wunderground v.1.13,2013-08-06 20:28:00,
2013-08-06 21:38:00,58.7,56.4,29.85,South,186,3.0,6.0,92,0.00,,,0.02,Wunderground v.1.13,2013-08-06 20:38:00,
2013-08-06 21:48:00,58.7,56.4,29.86,South,184,3.0,3.0,92,0.00,,,0.02,Wunderground v.1.13,2013-08-06 20:48:00,
2013-08-06 21:58:00,58.6,56.6,29.86,South,181,3.0,3.0,93,0.00,,,0.02,Wunderground v.1.13,2013-08-06 20:58:00,
2013-08-06 22:08:00,58.6,56.6,29.86,South,169,3.0,3.0,93,0.00,,,0.02,Wunderground v.1.13,2013-08-06 21:08:00,
2013-08-06 22:18:00,58.6,56.6,29.86,SSW,200,3.0,3.0,93,0.00,,,0.02,Wunderground v.1.13,2013-08-06 21:18:00,
2013-08-06 22:28:00,58.7,56.7,29.86,South,176,3.0,3.0,93,0.00,,,0.02,Wunderground v.1.13,2013-08-06 21:28:00,
2013-08-06 22:38:00,58.7,56.7,29.85,South,179,3.0,6.0,93,0.00,,,0.02,Wunderground v.1.13,2013-08-06 21:38:00,
2013-08-06 22:48:00,58.9,56.9,29.86,South,174,4.0,6.0,93,0.00,,,0.02,Wunderground v.1.13,2013-08-06 21:48:00,
2013-08-06 22:58:00,58.9,56.6,29.86,SSW,193,4.0,5.0,92,0.00,,,0.02,Wunderground v.1.13,2013-08-06 21:58:00,
2013-08-06 23:08:00,58.9,56.6,29.85,South,179,4.0,6.0,92,0.00,,,0.02,Wunderground v.1.13,2013-08-06 22:08:00,
2013-08-06 23:18:00,58.9,56.6,29.84,South,169,3.0,3.0,92,0.00,,,0.02,Wunderground v.1.13,2013-08-06 22:18:00,
2013-08-06 23:30:00,58.8,56.5,29.85,South,180,4.0,10.0,92,0.00,,,0.02,Wunderground v.1.13,2013-08-06 22:30:00,
2013-08-06 23:40:00,58.7,56.4,29.85,South,180,4.0,11.0,92,0.00,,,0.02,Wunderground v.1.13,2013-08-06 22:40:00,
2013-08-06 23:50:00,58.7,56.4,29.85,South,180,4.0,11.0,92,0.00,,,0.02,Wunderground v.1.13,2013-08-06 22:50:00,